DW9439 Weather Reports


Display with metric or nautical units.
time (UTC)temp
F
wind
direction
speed
MPH
gust
MPH
rain 1hr
in
rain 24hr
in
rain mn
in
humidity
%
barometer
mb
20260507090611 34 315 7.0 11.0 0.00 0.33 0.00 94 1030.4
20260507090257 34 319 7.0 11.0 0.00 0.33 0.00 94 1030.5
20260507085948 34 324 7.0 11.0 0.00 0.33 0.00 94 1030.6
20260507085637 34 328 7.0 13.0 0.00 0.34 0.00 94 1030.6
20260507084921 33 346 8.0 13.0 0.00 0.34 0.00 94 1030.6
20260507084622 33 355 8.0 13.0 0.00 0.34 0.00 93 1030.7
20260507084321 33 0 7.0 13.0 0.00 0.34 0.00 94 1030.7
20260507084016 33 59 7.0 13.0 0.00 0.34 0.00 94 1030.8
20260507083259 33 70 6.0 9.0 0.00 0.34 0.00 94 1030.7
20260507082954 33 71 6.0 9.0 0.00 0.34 0.00 94 1030.9
20260507082641 33 71 6.0 9.0 0.00 0.34 0.00 93 1030.9
20260507082338 33 71 6.0 9.0 0.00 0.34 0.00 93 1031.0
20260507082025 33 71 6.0 9.0 0.00 0.34 0.00 93 1031.0
20260507081301 33 71 5.0 8.0 0.00 0.35 0.00 93 1031.2
20260507080957 33 71 5.0 8.0 0.00 0.35 0.00 93 1031.2
20260507080654 33 71 5.0 8.0 0.00 0.35 0.00 93 1031.3
20260507080357 33 71 6.0 9.0 0.00 0.35 0.00 93 1031.3
20260507080050 33 71 6.0 9.0 0.00 0.35 0.00 93 1031.4
20260507075752 33 71 6.0 9.0 0.00 0.35 0.00 93 1031.3
20260507075445 33 71 6.0 9.0 0.00 0.35 0.00 94 1031.5
20260507075133 33 71 5.0 9.0 0.00 0.35 0.00 94 1031.5
20260507074827 33 71 5.0 9.0 0.00 0.36 0.00 94 1031.6
20260507074521 33 71 6.0 9.0 0.00 0.36 0.00 93 1031.7
20260507074214 33 71 5.0 8.0 0.00 0.36 0.00 93 1031.7
20260507073902 33 71 5.0 8.0 0.00 0.36 0.00 93 1031.6
20260507073553 33 71 5.0 8.0 0.00 0.36 0.00 93 1031.6
20260507073243 33 71 5.0 8.0 0.00 0.36 0.00 94 1031.6
20260507072943 33 71 5.0 8.0 0.00 0.36 0.00 93 1031.8
20260507072633 33 71 5.0 7.0 0.00 0.36 0.00 94 1031.8
20260507072324 33 71 5.0 7.0 0.00 0.36 0.00 94 1031.8
20260507071601 33 71 4.0 7.0 0.00 0.36 0.00 94 1031.9
20260507071301 32 71 4.0 6.0 0.00 0.36 0.00 93 1031.9
20260507070958 32 71 4.0 6.0 0.00 0.36 0.00 93 1031.9
20260507070653 32 71 4.0 6.0 0.00 0.36 0.00 93 1032.0
20260507070348 32 71 4.0 6.0 0.00 0.36 0.00 93 1032.0
20260507070052 32 71 4.0 6.0 0.00 0.36 0.00 93 1032.0
20260507065739 32 71 4.0 6.0 0.00 0.36 0.00 93 1032.0
20260507065434 32 71 4.0 6.0 0.00 0.36 0.00 93 1032.1
20260507065138 32 71 4.0 6.0 0.00 0.37 0.00 93 1032.1
20260507064838 32 71 3.0 6.0 0.00 0.37 0.00 93 1032.1
20260507064536 32 71 3.0 6.0 0.00 0.37 0.00 93 1032.3
20260507064223 32 71 4.0 6.0 0.00 0.37 0.00 93 1032.2
20260507063927 32 71 4.0 6.0 0.00 0.37 0.00 93 1032.3
20260507063620 33 71 4.0 8.0 0.00 0.37 0.00 93 1032.2
20260507063315 33 71 5.0 8.0 0.00 0.37 0.00 93 1032.3
20260507062554 33 71 5.0 8.0 0.00 0.37 0.00 93 1032.4
20260507062248 33 71 5.0 8.0 0.00 0.38 0.00 93 1032.3
20260507061517 33 71 5.0 8.0 0.00 0.38 0.00 93 1032.4
20260507060747 33 71 6.0 8.0 0.00 0.38 0.38 93 1032.6
20260507060451 34 71 6.0 8.0 0.00 0.38 0.38 93 1032.6
20260507060147 34 71 6.0 8.0 0.00 0.38 0.38 93 1032.6
20260507055836 33 71 5.0 8.0 0.00 0.38 0.38 93 1032.5
20260507055103 33 71 5.0 8.0 0.00 0.38 0.38 93 1032.7
20260507054759 33 71 5.0 8.0 0.00 0.38 0.38 93 1032.7
20260507054447 33 71 5.0 6.0 0.00 0.38 0.38 93 1032.7
20260507054145 33 71 4.0 6.0 0.00 0.38 0.38 93 1032.7
20260507053415 33 71 4.0 7.0 0.00 0.38 0.38 92 1032.7
20260507053118 33 71 4.0 7.0 0.00 0.38 0.38 92 1032.6
20260507052355 33 71 4.0 7.0 0.00 0.38 0.38 92 1032.6
20260507052047 33 71 4.0 7.0 0.00 0.38 0.38 93 1032.7
20260507051744 33 71 4.0 7.0 0.00 0.38 0.38 92 1032.8
20260507051447 33 71 4.0 6.0 0.00 0.38 0.38 92 1032.7
20260507051145 34 71 4.0 6.0 0.00 0.38 0.38 92 1032.7
20260507050843 34 71 4.0 6.0 0.00 0.38 0.38 92 1032.7
20260507050531 34 71 4.0 6.0 0.00 0.38 0.38 92 1032.7
20260507050233 34 71 4.0 6.0 0.00 0.38 0.38 92 1032.8
20260507045933 34 71 4.0 6.0 0.00 0.38 0.38 92 1032.7
20260507045634 34 71 4.0 7.0 0.00 0.39 0.38 92 1032.7
20260507045322 34 71 4.0 7.0 0.00 0.39 0.38 92 1032.8
20260507045009 34 71 4.0 7.0 0.00 0.39 0.38 92 1032.7
20260507044228 35 71 5.0 7.0 0.00 0.40 0.38 92 1032.8
20260507043924 35 71 5.0 7.0 0.00 0.40 0.38 92 1032.8
20260507042743 35 71 5.0 7.0 0.00 0.42 0.38 92 1032.8
20260507042429 35 71 5.0 7.0 0.00 0.42 0.38 92 1032.8
20260507042132 35 71 4.0 7.0 0.00 0.42 0.38 93 1032.9
20260507041400 35 71 4.0 6.0 0.00 0.43 0.38 92 1033.0
20260507041050 35 71 4.0 6.0 0.00 0.43 0.38 92 1033.0
20260507040745 35 71 5.0 7.0 0.00 0.44 0.38 92 1033.0
20260507040443 35 71 5.0 7.0 0.00 0.44 0.38 92 1033.0
20260507040144 35 71 5.0 7.0 0.00 0.44 0.38 92 1033.0
20260507035833 35 71 5.0 7.0 0.00 0.44 0.38 92 1033.0
20260507035533 35 71 5.0 7.0 0.00 0.45 0.38 92 1032.9
20260507034803 35 71 4.0 6.0 0.00 0.46 0.38 92 1033.0
20260507034456 35 71 4.0 6.0 0.00 0.46 0.38 92 1032.9
20260507034200 35 71 3.0 6.0 0.00 0.47 0.38 92 1033.0
20260507033854 35 71 3.0 6.0 0.00 0.47 0.38 92 1032.9
20260507033558 35 71 3.0 6.0 0.00 0.47 0.38 92 1032.9
20260507033254 35 71 3.0 6.0 0.00 0.48 0.38 92 1032.9
20260507032953 36 71 4.0 6.0 0.00 0.49 0.38 92 1032.9
20260507032642 36 71 4.0 6.0 0.00 0.49 0.38 92 1032.8
20260507032340 35 71 4.0 5.0 0.00 0.49 0.38 92 1032.8
20260507032036 35 71 3.0 5.0 0.00 0.50 0.38 91 1032.8
20260507031733 35 71 2.0 5.0 0.00 0.50 0.38 91 1032.8
20260507031434 35 71 2.0 4.0 0.00 0.50 0.38 91 1032.8
20260507031124 35 71 2.0 4.0 0.00 0.51 0.38 91 1032.8
20260507030823 36 71 2.0 4.0 0.00 0.51 0.38 91 1032.8
20260507030513 36 71 2.0 5.0 0.00 0.51 0.38 91 1032.8
20260507030205 36 71 3.0 5.0 0.00 0.52 0.38 91 1032.8
20260507025901 36 71 3.0 5.0 0.00 0.52 0.38 91 1032.6
20260507025549 36 71 3.0 5.0 0.00 0.53 0.38 91 1032.6
20260507024817 37 71 4.0 5.0 0.00 0.54 0.38 91 1032.6
20260507024505 37 71 4.0 6.0 0.00 0.55 0.38 91 1032.6
20260507023320 37 71 4.0 6.0 0.00 0.57 0.38 91 1032.6
20260507022559 37 71 4.0 6.0 0.00 0.58 0.38 90 1032.4
20260507022306 37 71 4.0 5.0 0.00 0.59 0.38 90 1032.4
20260507021954 37 71 4.0 5.0 0.00 0.59 0.38 90 1032.4
20260507021643 38 71 3.0 5.0 0.00 0.59 0.38 90 1032.3
20260507021332 38 71 3.0 5.0 0.00 0.59 0.38 90 1032.1
20260507021020 38 71 2.0 4.0 0.00 0.59 0.38 90 1032.1
20260507020722 38 71 2.0 4.0 0.00 0.59 0.38 89 1032.0
20260507015958 39 71 3.0 5.0 0.00 0.60 0.38 89 1032.1
20260507015647 39 71 3.0 5.0 0.00 0.60 0.38 90 1032.0
20260507015344 39 71 3.0 5.0 0.00 0.60 0.38 89 1032.1
20260507015043 39 71 3.0 5.0 0.00 0.60 0.38 89 1032.2
20260507014743 40 71 4.0 5.0 0.00 0.60 0.38 89 1032.0
20260507013548 41 71 4.0 6.0 0.00 0.60 0.38 89 1032.0
20260507013251 41 71 4.0 8.0 0.00 0.60 0.38 89 1032.0
20260507012942 41 71 4.0 8.0 0.00 0.60 0.38 89 1032.1
20260507012632 41 71 5.0 8.0 0.00 0.60 0.38 89 1032.0
20260507012336 41 71 5.0 8.0 0.00 0.60 0.38 89 1032.1
20260507012034 41 71 5.0 8.0 0.00 0.60 0.38 88 1032.0
20260507011736 41 71 5.0 8.0 0.00 0.60 0.38 89 1031.9
20260507011440 41 71 5.0 8.0 0.00 0.60 0.38 88 1031.9
20260507011134 41 71 5.0 8.0 0.00 0.60 0.38 88 1031.9
20260507010837 42 71 5.0 8.0 0.00 0.60 0.38 88 1031.8
20260507010523 42 73 6.0 8.0 0.00 0.60 0.38 89 1031.9
20260507010225 42 73 6.0 8.0 0.00 0.60 0.38 89 1031.9
20260507005927 42 73 6.0 8.0 0.00 0.60 0.38 89 1032.0
20260507005631 42 74 6.0 8.0 0.00 0.60 0.38 89 1031.9
20260507005330 42 74 6.0 8.0 0.00 0.60 0.38 89 1031.9
20260507005018 41 74 6.0 8.0 0.00 0.60 0.38 88 1031.9
20260507004713 42 74 6.0 8.0 0.00 0.60 0.38 89 1031.9
20260507004416 42 74 6.0 8.0 0.00 0.60 0.38 89 1031.9
20260507003650 42 74 6.0 9.0 0.00 0.60 0.38 90 1031.9
20260507003342 42 75 5.0 9.0 0.00 0.60 0.38 90 1031.9
20260507003037 42 75 5.0 9.0 0.00 0.60 0.38 90 1031.9
20260507002737 42 75 5.0 9.0 0.00 0.60 0.38 90 1031.9
20260507002433 41 75 6.0 9.0 0.00 0.60 0.38 90 1031.8
20260507002119 41 74 6.0 9.0 0.00 0.60 0.38 89 1031.9
20260507001349 41 74 5.0 8.0 0.00 0.60 0.38 90 1032.0
20260507001048 41 74 5.0 8.0 0.00 0.60 0.38 89 1032.0
20260507000746 41 74 5.0 8.0 0.00 0.60 0.38 90 1031.9
20260507000033 42 73 5.0 8.0 0.00 0.60 0.38 90 1031.9
20260506235733 42 73 5.0 8.0 0.00 0.60 0.38 90 1032.0
20260506235432 42 73 5.0 8.0 0.00 0.60 0.38 90 1032.0
20260506235135 42 74 5.0 8.0 0.00 0.60 0.38 91 1032.1
20260506234836 42 74 4.0 8.0 0.00 0.60 0.38 92 1032.1
20260506234530 41 74 5.0 8.0 0.00 0.60 0.38 90 1032.2
20260506234225 41 74 4.0 8.0 0.00 0.60 0.38 90 1032.2
20260506233912 41 74 4.0 8.0 0.00 0.60 0.38 90 1032.3
20260506233600 41 74 4.0 6.0 0.00 0.60 0.38 91 1032.2
20260506233254 41 74 4.0 6.0 0.00 0.60 0.38 91 1032.1
20260506232533 41 74 3.0 8.0 0.00 0.60 0.38 91 1032.2
20260506232235 41 74 3.0 8.0 0.00 0.60 0.38 91 1032.2
20260506231505 41 74 5.0 8.0 0.00 0.60 0.38 91 1032.4
20260506231151 41 74 5.0 8.0 0.00 0.60 0.38 91 1032.6
20260506230849 41 74 4.0 7.0 0.00 0.60 0.38 91 1032.6
20260506230549 41 74 5.0 7.0 0.00 0.60 0.38 91 1032.5
20260506230253 41 74 4.0 7.0 0.00 0.60 0.38 92 1032.3
20260506225521 40 74 4.0 7.0 0.00 0.58 0.38 91 1032.1
20260506225222 40 74 4.0 7.0 0.00 0.58 0.37 91 1032.2
20260506224922 40 74 4.0 6.0 0.04 0.58 0.37 91 1032.2
20260506224619 40 74 3.0 6.0 0.05 0.58 0.37 91 1032.1
20260506224322 40 74 3.0 6.0 0.05 0.58 0.37 91 1032.1
20260506224008 40 74 4.0 6.0 0.05 0.58 0.37 91 1032.0
20260506223701 40 74 4.0 6.0 0.05 0.58 0.37 91 1032.0
20260506223357 40 74 4.0 6.0 0.04 0.58 0.36 91 1032.1
20260506223054 40 74 4.0 6.0 0.04 0.58 0.36 91 1032.3
20260506222744 40 74 4.0 6.0 0.04 0.58 0.36 91 1032.3
20260506222031 40 74 4.0 6.0 0.00 0.58 0.35 91 1032.3
20260506221733 40 74 4.0 6.0 0.00 0.58 0.35 91 1032.2
20260506221012 40 74 4.0 6.0 0.00 0.58 0.35 92 1032.4
20260506220706 40 74 4.0 6.0 0.00 0.57 0.34 92 1032.3
20260506215939 40 74 4.0 6.0 0.00 0.57 0.34 92 1032.4
20260506215625 40 74 3.0 6.0 0.00 0.58 0.34 92 1032.2
20260506214015 40 74 1.0 5.0 0.00 0.59 0.34 92 1032.3
20260506213702 40 74 1.0 4.0 0.00 0.59 0.34 93 1032.2
20260506212949 40 74 1.0 4.0 0.00 0.59 0.34 93 1032.2
20260506212649 40 74 1.0 4.0 0.00 0.59 0.34 93 1032.2
20260506212342 40 74 1.0 4.0 0.00 0.59 0.34 93 1032.1
20260506212034 40 74 2.0 0.0 0.00 0.59 0.34 93 1032.2
20260506211728 40 74 1.0 4.0 0.00 0.59 0.34 93 1032.2
20260506211417 40 74 1.0 4.0 0.00 0.59 0.34 93 1032.3
20260506211113 40 74 0.0 4.0 0.00 0.59 0.34 93 1032.3
20260506210816 40 74 0.0 0.0 0.00 0.59 0.34 93 1032.3
20260506210504 40 74 0.0 5.0 0.00 0.59 0.34 93 1032.2
20260506210156 40 74 0.0 5.0 0.00 0.59 0.34 93 1032.2
20260506205843 40 74 1.0 5.0 0.00 0.59 0.34 93 1032.3
20260506205539 40 74 0.0 5.0 0.00 0.59 0.34 93 1032.3
20260506205226 40 74 0.0 5.0 0.00 0.59 0.34 93 1032.3
20260506204921 40 74 0.0 0.0 0.00 0.59 0.34 94 1032.3
20260506204617 40 74 0.0 5.0 0.00 0.59 0.34 94 1032.2
20260506204308 40 74 0.0 4.0 0.00 0.59 0.34 93 1032.2
20260506204001 39 74 1.0 4.0 0.00 0.59 0.34 93 1032.2
20260506203648 39 74 1.0 4.0 0.00 0.59 0.34 93 1032.2
20260506203348 39 74 1.0 5.0 0.00 0.59 0.34 93 1032.2
20260506203043 40 74 1.0 5.0 0.00 0.59 0.34 94 1032.2
20260506202742 39 74 1.0 0.0 0.00 0.59 0.34 93 1032.4
20260506202440 39 74 3.0 0.0 0.00 0.59 0.34 93 1032.3
20260506202138 39 74 3.0 5.0 0.00 0.59 0.34 93 1032.4
20260506201840 39 74 2.0 5.0 0.00 0.59 0.34 94 1032.4
20260506201533 39 74 2.0 5.0 0.00 0.59 0.33 94 1032.4
20260506201222 39 74 2.0 5.0 0.00 0.59 0.33 93 1032.4
20260506200920 39 74 2.0 5.0 0.00 0.59 0.33 93 1032.3
20260506200617 40 74 2.0 5.0 0.00 0.59 0.33 94 1032.3
20260506200305 40 74 1.0 5.0 0.00 0.59 0.33 94 1032.3
20260506200008 40 74 0.0 4.0 0.00 0.59 0.33 94 1032.2
20260506195706 40 74 0.0 5.0 0.00 0.59 0.33 94 1032.2
20260506195352 39 74 1.0 5.0 0.00 0.59 0.33 94 1032.3
20260506195054 39 74 1.0 5.0 0.00 0.59 0.33 94 1032.1
20260506194754 39 74 1.0 5.0 0.00 0.59 0.33 93 1032.1
20260506194440 39 74 1.0 5.0 0.00 0.59 0.33 94 1032.2
20260506194138 39 74 1.0 5.0 0.00 0.59 0.33 94 1032.2
20260506193827 39 74 1.0 5.0 0.00 0.59 0.33 94 1032.2
20260506193523 40 74 1.0 5.0 0.00 0.59 0.33 94 1032.2
20260506193226 39 74 1.0 5.0 0.00 0.59 0.33 94 1032.2
20260506192925 39 74 1.0 5.0 0.00 0.59 0.33 94 1032.2
20260506192159 39 74 3.0 7.0 0.00 0.59 0.33 94 1032.0
20260506191848 39 74 3.0 7.0 0.00 0.59 0.33 94 1032.0
20260506191548 39 74 3.0 7.0 0.00 0.59 0.33 94 1031.9
20260506191246 40 74 3.0 7.0 0.00 0.59 0.33 94 1032.0
20260506190937 40 74 2.0 7.0 0.00 0.59 0.33 94 1032.1
20260506190209 39 74 1.0 6.0 0.00 0.59 0.33 94 1032.2
20260506185907 39 74 2.0 6.0 0.00 0.59 0.33 94 1032.2
20260506185605 39 74 2.0 6.0 0.00 0.58 0.32 94 1032.2
20260506184840 39 74 1.0 5.0 0.00 0.58 0.32 94 1032.4
20260506184532 39 74 0.0 5.0 0.00 0.58 0.32 94 1032.4
20260506184234 39 74 0.0 3.0 0.00 0.58 0.32 94 1032.5
20260506183925 39 74 0.0 2.0 0.00 0.58 0.32 94 1032.4
20260506183616 39 74 1.0 4.0 0.00 0.58 0.32 94 1032.5
20260506183305 39 74 1.0 4.0 0.00 0.58 0.32 94 1032.5
20260506183001 38 74 1.0 4.0 0.00 0.58 0.32 94 1032.5
20260506182658 38 74 1.0 4.0 0.00 0.58 0.32 94 1032.6
20260506182344 38 74 1.0 4.0 0.00 0.57 0.32 94 1032.7
20260506182042 38 74 1.0 4.0 0.00 0.57 0.31 94 1032.7
20260506181737 38 74 1.0 4.0 0.00 0.57 0.31 94 1032.7
20260506181425 38 74 1.0 5.0 0.00 0.57 0.31 94 1032.7
20260506181112 38 74 1.0 5.0 0.00 0.57 0.31 94 1032.7
20260506180814 37 74 1.0 5.0 0.00 0.57 0.31 94 1032.7
20260506180516 37 74 1.0 6.0 0.00 0.57 0.31 94 1032.7
20260506180202 37 74 2.0 6.0 0.00 0.57 0.31 94 1032.6
20260506175902 37 74 2.0 6.0 0.04 0.57 0.31 94 1032.7
20260506175549 37 74 3.0 6.0 0.05 0.57 0.31 94 1032.7
20260506175240 37 74 3.0 6.0 0.05 0.57 0.31 94 1032.7
20260506174943 37 74 3.0 6.0 0.05 0.57 0.31 94 1032.7
20260506174635 37 74 2.0 6.0 0.05 0.57 0.31 94 1032.7
20260506174323 37 74 2.0 5.0 0.05 0.55 0.31 94 1032.7
20260506174025 36 74 2.0 5.0 0.05 0.55 0.30 94 1032.7
20260506173302 36 74 3.0 7.0 0.05 0.55 0.30 94 1032.8
20260506172958 36 74 4.0 7.0 0.06 0.55 0.28 94 1032.6
20260506172701 36 74 3.0 7.0 0.09 0.55 0.28 94 1032.7
20260506172358 36 74 3.0 7.0 0.09 0.55 0.28 94 1032.7
20260506172050 35 74 3.0 7.0 0.06 0.54 0.27 94 1032.7
20260506171738 35 74 3.0 5.0 0.06 0.54 0.27 94 1032.7
20260506171432 35 74 3.0 5.0 0.06 0.52 0.27 94 1032.6
20260506171132 35 74 2.0 5.0 0.12 0.52 0.27 94 1032.6
20260506170824 35 74 3.0 5.0 0.12 0.52 0.27 94 1032.5
20260506170514 35 74 3.0 5.0 0.10 0.52 0.26 94 1032.5
20260506170201 35 74 3.0 5.0 0.10 0.50 0.26 94 1032.5
20260506165020 35 74 2.0 5.0 0.13 0.49 0.23 94 1032.3
20260506164721 35 74 2.0 5.0 0.15 0.49 0.23 94 1032.3
20260506164417 34 74 3.0 5.0 0.09 0.47 0.21 94 1032.3
20260506164106 34 74 3.0 5.0 0.10 0.47 0.21 94 1032.2
20260506163756 34 74 3.0 5.0 0.10 0.47 0.21 93 1032.2
20260506163445 34 74 2.0 5.0 0.08 0.46 0.20 93 1032.1
20260506163137 34 74 2.0 4.0 0.08 0.46 0.20 93 1032.0
20260506162827 34 74 1.0 4.0 0.08 0.45 0.19 93 1032.1
20260506162522 34 74 1.0 4.0 0.08 0.45 0.19 93 1032.0
20260506162211 34 74 1.0 4.0 0.08 0.44 0.19 94 1032.0
20260506161904 34 74 1.0 4.0 0.06 0.44 0.18 93 1032.0
20260506161556 34 74 1.0 4.0 0.06 0.42 0.18 94 1031.9
20260506161258 34 74 1.0 4.0 0.08 0.42 0.17 94 1031.9
20260506160954 34 74 2.0 5.0 0.08 0.42 0.17 93 1031.7
20260506155353 34 74 2.0 5.0 0.10 0.41 0.15 93 1031.5
20260506154626 34 74 1.0 4.0 0.09 0.40 0.13 93 1031.4
20260506154316 34 74 2.0 4.0 0.09 0.39 0.13 93 1031.4
20260506154013 33 74 1.0 4.0 0.13 0.39 0.13 93 1031.2
20260506153702 33 74 1.0 3.0 0.13 0.38 0.12 93 1031.2
20260506153352 33 74 1.0 3.0 0.09 0.38 0.12 93 1031.2
20260506152217 33 74 1.0 3.0 0.08 0.35 0.10 93 1031.3
20260506151919 33 74 0.0 3.0 0.08 0.35 0.09 93 1031.3
20260506151618 33 74 0.0 3.0 0.08 0.35 0.09 93 1031.2
20260506151307 33 74 0.0 3.0 0.00 0.34 0.08 93 1031.3
20260506151005 33 74 0.0 0.0 0.00 0.34 0.08 93 1031.2
20260506145834 33 74 0.0 0.0 0.00 0.33 0.06 93 1031.3
20260506145529 33 74 0.0 0.0 0.00 0.33 0.06 93 1031.2
20260506145230 33 74 0.0 0.0 0.00 0.33 0.06 93 1031.2
20260506144928 33 74 0.0 2.0 0.00 0.33 0.06 93 1031.2
20260506144207 33 74 0.0 1.0 0.00 0.33 0.06 93 1031.3
20260506143030 33 74 0.0 0.0 0.00 0.33 0.06 93 1031.4
20260506142253 33 74 0.0 0.0 0.00 0.33 0.06 93 1031.3
20260506141944 33 74 0.0 0.0 0.00 0.33 0.06 93 1031.3
20260506141630 33 74 0.0 0.0 0.00 0.33 0.06 93 1031.3
20260506141326 33 74 0.0 0.0 0.00 0.33 0.06 93 1031.3
20260506141014 33 74 0.0 0.0 0.00 0.33 0.06 93 1031.3
20260506140715 33 74 0.0 0.0 0.00 0.33 0.06 93 1031.4
20260506140414 33 74 0.0 0.0 0.00 0.33 0.06 93 1031.3
20260506140107 33 74 0.0 0.0 0.00 0.33 0.06 93 1031.5
20260506135809 33 74 0.0 0.0 0.00 0.33 0.06 93 1031.4
20260506135505 33 74 0.0 1.0 0.00 0.33 0.06 93 1031.4
20260506134749 33 74 0.0 0.0 0.00 0.33 0.06 93 1031.2
20260506134437 33 74 0.0 0.0 0.00 0.33 0.06 93 1031.1
20260506134127 33 74 0.0 0.0 0.00 0.33 0.06 93 1031.0
20260506133814 33 74 0.0 0.0 0.00 0.33 0.06 93 1031.0
20260506133504 33 74 0.0 0.0 0.00 0.33 0.06 93 1030.8
20260506133200 33 74 0.0 0.0 0.00 0.33 0.06 93 1030.8
20260506132852 33 74 0.0 0.0 0.00 0.33 0.06 93 1030.7
20260506132556 33 74 0.0 0.0 0.00 0.33 0.06 93 1030.6
20260506132257 33 74 0.0 0.0 0.00 0.33 0.06 93 1030.6
20260506131954 33 74 0.0 0.0 0.00 0.33 0.06 93 1030.5
20260506131228 33 74 0.0 0.0 0.00 0.33 0.06 93 1030.3
20260506130920 33 74 0.0 0.0 0.00 0.33 0.06 93 1030.2
20260506130618 33 74 0.0 0.0 0.00 0.33 0.06 93 1030.2
20260506130318 33 74 0.0 0.0 0.00 0.33 0.06 93 1030.2
20260506130019 32 74 0.0 0.0 0.00 0.33 0.06 93 1030.1
20260506125722 32 74 0.0 0.0 0.00 0.33 0.06 93 1030.1
20260506125001 33 74 0.0 0.0 0.00 0.33 0.06 93 1029.8
20260506124658 32 74 0.0 0.0 0.00 0.33 0.06 93 1029.8
20260506124347 32 74 0.0 1.0 0.00 0.33 0.06 93 1029.7
20260506123616 32 74 0.0 1.0 0.00 0.33 0.06 92 1029.5
20260506122850 32 74 0.0 0.0 0.00 0.33 0.06 92 1029.4
20260506122550 32 74 0.0 0.0 0.00 0.33 0.06 92 1029.4
20260506122247 32 74 0.0 0.0 0.00 0.33 0.06 92 1029.4
20260506121941 32 74 0.0 0.0 0.00 0.33 0.06 92 1029.4
20260506121642 32 74 0.0 0.0 0.00 0.33 0.06 92 1029.2
20260506121341 32 74 0.0 0.0 0.00 0.33 0.06 92 1029.1
20260506121045 32 74 0.0 0.0 0.00 0.33 0.06 93 1029.1
20260506120746 32 74 0.0 0.0 0.00 0.33 0.06 92 1029.1
20260506115137 32 74 0.0 0.0 0.00 0.33 0.06 92 1028.9
20260506114836 32 74 0.0 0.0 0.00 0.33 0.06 92 1028.9
20260506114533 32 74 0.0 0.0 0.00 0.33 0.06 92 1028.6
20260506114223 32 74 0.0 0.0 0.00 0.33 0.06 92 1028.6
20260506113912 32 74 0.0 0.0 0.00 0.33 0.06 92 1028.5
20260506113601 32 74 0.0 0.0 0.00 0.33 0.06 92 1028.6
20260506113259 32 74 0.0 0.0 0.00 0.33 0.06 92 1028.4
20260506112953 32 74 0.0 0.0 0.00 0.33 0.06 92 1028.4
20260506112239 32 74 0.0 0.0 0.00 0.33 0.06 92 1028.3
20260506111930 32 74 0.0 0.0 0.00 0.33 0.06 92 1028.4
20260506111626 32 74 0.0 0.0 0.00 0.33 0.06 92 1028.3
20260506111313 32 74 0.0 0.0 0.00 0.33 0.06 92 1028.2
20260506111009 32 74 0.0 0.0 0.00 0.33 0.06 92 1028.2
20260506110243 32 74 0.0 0.0 0.00 0.33 0.06 92 1028.1
20260506105941 32 74 0.0 0.0 0.00 0.33 0.06 92 1028.1
20260506105637 32 74 0.0 0.0 0.00 0.33 0.06 92 1028.1
20260506105340 32 74 0.0 0.0 0.00 0.33 0.06 92 1028.0
20260506105032 32 74 0.0 0.0 0.00 0.33 0.06 92 1028.0
20260506104725 33 74 0.0 0.0 0.00 0.33 0.06 92 1028.0
20260506104413 33 74 0.0 0.0 0.00 0.33 0.06 92 1028.0
20260506104057 33 74 0.0 0.0 0.00 0.33 0.06 92 1028.1
20260506103320 33 74 0.0 0.0 0.00 0.33 0.06 92 1028.0
20260506103021 33 74 0.0 0.0 0.00 0.33 0.06 92 1028.1
20260506102712 33 74 0.0 0.0 0.00 0.33 0.06 92 1028.0
20260506102400 33 74 0.0 1.0 0.00 0.33 0.06 92 1028.0
20260506102059 33 74 0.0 1.0 0.00 0.33 0.06 92 1027.9
20260506100500 34 74 0.0 0.0 0.00 0.33 0.06 92 1027.8
20260506100158 34 74 0.0 4.0 0.04 0.33 0.06 92 1027.8
20260506095853 34 74 0.0 4.0 0.04 0.33 0.06 92 1027.7
20260506095539 34 74 0.0 4.0 0.06 0.33 0.06 92 1027.8
20260506095236 34 74 0.0 4.0 0.06 0.33 0.06 92 1027.7
20260506094936 35 74 0.0 6.0 0.06 0.33 0.06 92 1027.6
20260506094639 35 74 0.0 6.0 0.06 0.32 0.06 92 1027.6
20260506094327 35 74 1.0 6.0 0.00 0.32 0.06 92 1027.8
20260506094024 35 74 2.0 6.0 0.00 0.32 0.06 92 1027.9
20260506093715 35 74 2.0 6.0 0.00 0.31 0.06 92 1027.7
20260506092950 36 74 1.0 5.0 0.00 0.31 0.05 92 1027.6
20260506092648 36 74 0.0 4.0 0.00 0.31 0.05 92 1027.7
20260506092333 36 74 0.0 4.0 0.00 0.31 0.05 92 1027.5
20260506092023 36 74 1.0 4.0 0.00 0.31 0.05 92 1027.5
20260506091710 36 74 1.0 4.0 0.00 0.31 0.05 92 1027.3
20260506091403 36 74 1.0 4.0 0.00 0.31 0.05 92 1027.3
20260506091052 36 74 1.0 4.0 0.00 0.31 0.05 92 1027.2
20260506090744 36 74 1.0 3.0 0.00 0.31 0.05 92 1027.2